Wrangell, AK

1:31 PM AKST on December 18, 2017 (GMT -0900)
Wrangell

Weather History for PAWG - August, 2012

Change the Weather History Date:

Monday, August 6, 2012

  Actual Average Record
Temperature  
Mean Temperature 60 °F -  
Max Temperature 66 °F 65 °F 75 °F (1980)
Min Temperature 53 °F 51 °F 42 °F (1991)
Degree Days  
Heating Degree Days 6    
Growing Degree Days 10 (Base 50)    
Moisture  
Dew Point 54 °F    
Average Humidity 83    
Maximum Humidity 94    
Minimum Humidity 68    
Precipitation  
Precipitation 0.00 in - - ()
Sea Level Pressure  
Sea Level Pressure 30.08 in    
Wind  
Wind Speed 3 mph (East)    
Max Wind Speed 7 mph    
Max Gust Speed -    
Visibility 10 miles    
Events      
Averages and records for this station are not official NWS values.
T = Trace of Precipitation, MM = Missing Value Source: NWS Daily Summary

Daily Weather History Graph

Daily Weather History Graph

Search for Another Location

Airport or City:

Trip Planner

Search our weather history database for the weather conditions in past years. The results will help you decide how hot, cold, wet, or windy it might be!

Date:

Astronomy

Aug. 06, 2012 Rise Set
Actual Time 5:02 AM AKDT 8:47 PM AKDT
Civil Twilight 4:14 AM AKDT 9:33 PM AKDT
Nautical Twilight 3:06 AM AKDT 10:40 PM AKDT
Astronomical Twilight 1:27 AM AKDT 12:22 AM AKDT
Moon 9:41 PM AKDT (8/6) 11:12 AM AKDT (8/6)
Length of Visible Light 17h 19m
Length of Day
15h 45m
Waning Gibbous, 77% of the Moon is Illuminated
Aug 6
Waning Gibbous
Aug 9
Last Quarter
Aug 17
New
Aug 24
First Quarter
Aug 31
Full

Hourly Weather History & Observations

Time (AKDT) Temp. Dew Point Humidity Pressure Visibility Wind Dir Wind Speed Gust Speed Precip Events Conditions
12:16 AM 53.6 °F 51.8 °F 94% 30.06 in 10.0 mi Calm Calm - N/A   Overcast
12:36 AM 53.6 °F 51.8 °F 94% 30.07 in 10.0 mi SSE 3.5 mph - N/A   Overcast
12:56 AM 55.4 °F 51.8 °F 88% 30.07 in 10.0 mi SSE 5.8 mph - N/A   Overcast
1:16 AM 55.4 °F 53.6 °F 94% 30.06 in 10.0 mi SSE 5.8 mph - N/A   Overcast
1:36 AM 57.2 °F 53.6 °F 88% 30.07 in 10.0 mi East 4.6 mph - N/A   Overcast
1:56 AM 57.2 °F 53.6 °F 88% 30.07 in 10.0 mi East 3.5 mph - N/A   Overcast
2:16 AM 57.2 °F 53.6 °F 88% 30.07 in 10.0 mi Calm Calm - N/A   Overcast
2:36 AM 55.4 °F 53.6 °F 94% 30.07 in 10.0 mi ESE 3.5 mph - N/A   Overcast
2:56 AM 57.2 °F 53.6 °F 88% 30.07 in 10.0 mi Calm Calm - N/A   Overcast
3:16 AM 55.4 °F 51.8 °F 88% 30.07 in 10.0 mi Calm Calm - N/A   Overcast
3:36 AM 55.4 °F 51.8 °F 88% 30.07 in 10.0 mi ESE 3.5 mph - N/A   Overcast
3:56 AM 55.4 °F 51.8 °F 88% 30.07 in 10.0 mi East 5.8 mph - N/A   Overcast
4:16 AM 55.4 °F 51.8 °F 88% 30.07 in 10.0 mi SE 4.6 mph - N/A   Overcast
4:36 AM 55.4 °F 51.8 °F 88% 30.07 in 10.0 mi ESE 5.8 mph - N/A   Overcast
4:56 AM 55.4 °F 51.8 °F 88% 30.07 in 10.0 mi SE 5.8 mph - N/A   Overcast
5:16 AM 55.4 °F 51.8 °F 88% 30.07 in 10.0 mi ESE 5.8 mph - N/A   Overcast
5:36 AM 55.4 °F 51.8 °F 88% 30.08 in 10.0 mi East 6.9 mph - N/A   Overcast
5:56 AM 55.4 °F 51.8 °F 88% 30.08 in 10.0 mi NE 3.5 mph - N/A   Overcast
6:16 AM 55.4 °F 51.8 °F 88% 30.08 in 10.0 mi ESE 4.6 mph - N/A   Overcast
6:36 AM 55.4 °F 51.8 °F 88% 30.08 in 10.0 mi ESE 4.6 mph - N/A   Overcast
6:56 AM 55.4 °F 51.8 °F 88% 30.08 in 10.0 mi ESE 5.8 mph - N/A   Overcast
7:16 AM 55.4 °F 51.8 °F 88% 30.09 in 10.0 mi Calm Calm - N/A   Overcast
7:36 AM 57.2 °F 53.6 °F 88% 30.09 in 10.0 mi SE 3.5 mph - N/A   Overcast
7:56 AM 57.2 °F 53.6 °F 88% 30.09 in 10.0 mi ESE 3.5 mph - N/A   Overcast
8:16 AM 57.2 °F 53.6 °F 88% 30.09 in 10.0 mi SE 3.5 mph - N/A   Overcast
8:36 AM 57.2 °F 53.6 °F 88% 30.09 in 10.0 mi SE 4.6 mph - N/A   Overcast
8:56 AM 57.2 °F 53.6 °F 88% 30.09 in 10.0 mi Calm Calm - N/A   Overcast
9:16 AM 59.0 °F 53.6 °F 82% 30.10 in 10.0 mi East 3.5 mph - N/A   Overcast
9:36 AM 57.2 °F 53.6 °F 88% 30.10 in 10.0 mi ESE 3.5 mph - N/A   Overcast
9:56 AM 57.2 °F 53.6 °F 88% 30.10 in 10.0 mi ENE 3.5 mph - N/A   Overcast
10:16 AM 57.2 °F 53.6 °F 88% 30.10 in 10.0 mi ESE 5.8 mph - N/A   Overcast
10:36 AM 60.8 °F 53.6 °F 77% 30.10 in 10.0 mi ESE 5.8 mph - N/A   Overcast
10:56 AM 60.8 °F 55.4 °F 82% 30.10 in 10.0 mi Calm Calm - N/A   Mostly Cloudy
11:16 AM 62.6 °F 55.4 °F 77% 30.10 in 10.0 mi North 4.6 mph - N/A   Mostly Cloudy
11:36 AM 60.8 °F 53.6 °F 77% 30.11 in 10.0 mi NNW 5.8 mph - N/A   Mostly Cloudy
11:56 AM 60.8 °F 55.4 °F 82% 30.10 in 10.0 mi NNW 5.8 mph - N/A   Mostly Cloudy
12:16 PM 62.6 °F 55.4 °F 77% 30.10 in 10.0 mi NNW 5.8 mph - N/A   Mostly Cloudy
12:36 PM 62.6 °F 55.4 °F 77% 30.10 in 10.0 mi NNW 5.8 mph - N/A   Mostly Cloudy
12:56 PM 60.8 °F 55.4 °F 82% 30.10 in 10.0 mi NNW 6.9 mph - N/A   Mostly Cloudy
1:16 PM 62.6 °F 55.4 °F 77% 30.10 in 10.0 mi NNW 4.6 mph - N/A   Mostly Cloudy
1:56 PM 62.6 °F 55.4 °F 77% 30.09 in 10.0 mi NW 6.9 mph - N/A   Scattered Clouds
2:16 PM 62.6 °F 55.4 °F 77% 30.09 in 10.0 mi WNW 4.6 mph - N/A   Scattered Clouds
2:36 PM 62.6 °F 55.4 °F 77% 30.09 in 10.0 mi NW 3.5 mph - N/A   Scattered Clouds
2:56 PM 62.6 °F 55.4 °F 77% 30.09 in 10.0 mi NW 6.9 mph - N/A   Mostly Cloudy
3:16 PM 64.4 °F 55.4 °F 73% 30.09 in 10.0 mi NW 6.9 mph - N/A   Mostly Cloudy
3:36 PM 64.4 °F 55.4 °F 73% 30.09 in 10.0 mi West 5.8 mph - N/A   Mostly Cloudy
3:56 PM 64.4 °F 55.4 °F 73% 30.08 in 10.0 mi WSW 5.8 mph - N/A   Mostly Cloudy
4:16 PM 66.2 °F 55.4 °F 68% 30.09 in 10.0 mi West 5.8 mph - N/A   Mostly Cloudy
5:16 PM 62.6 °F 55.4 °F 77% 30.08 in 10.0 mi Calm Calm - N/A   Mostly Cloudy
5:56 PM 60.8 °F 55.4 °F 82% 30.07 in 10.0 mi Calm Calm - N/A   Mostly Cloudy
6:16 PM 60.8 °F 53.6 °F 77% 30.08 in 10.0 mi Calm Calm - N/A   Mostly Cloudy
6:36 PM 60.8 °F 55.4 °F 82% 30.07 in 10.0 mi Calm Calm - N/A   Mostly Cloudy
6:56 PM 60.8 °F 53.6 °F 77% 30.07 in 10.0 mi Calm Calm - N/A   Mostly Cloudy
7:16 PM 62.6 °F 55.4 °F 77% 30.07 in 10.0 mi Calm Calm - N/A   Mostly Cloudy
7:36 PM 59.0 °F 53.6 °F 82% 30.07 in 10.0 mi Calm Calm - N/A   Mostly Cloudy
7:56 PM 59.0 °F 53.6 °F 82% 30.06 in 10.0 mi Calm Calm - N/A   Scattered Clouds
8:16 PM 60.8 °F 53.6 °F 77% 30.07 in 10.0 mi Calm Calm - N/A   Scattered Clouds
8:36 PM 62.6 °F 55.4 °F 77% 30.07 in 10.0 mi West 4.6 mph - N/A   Scattered Clouds
8:56 PM 60.8 °F 53.6 °F 77% 30.08 in 10.0 mi West 3.5 mph - N/A   Scattered Clouds
9:16 PM 60.8 °F 53.6 °F 77% 30.07 in 10.0 mi WSW 3.5 mph - N/A   Scattered Clouds
9:36 PM 60.8 °F 53.6 °F 77% 30.07 in 10.0 mi SW 4.6 mph - N/A   Scattered Clouds
9:56 PM 59.0 °F 53.6 °F 82% 30.07 in 10.0 mi Calm Calm - N/A   Scattered Clouds
10:16 PM 59.0 °F 53.6 °F 82% 30.06 in 10.0 mi NW 4.6 mph - N/A   Scattered Clouds
10:36 PM 55.4 °F 51.8 °F 88% 30.06 in 10.0 mi South 3.5 mph - N/A   Scattered Clouds
10:56 PM 55.4 °F 51.8 °F 88% 30.04 in 10.0 mi NNW 4.6 mph - N/A   Scattered Clouds
11:16 PM 55.4 °F 51.8 °F 88% 30.04 in 10.0 mi WNW 4.6 mph - N/A   Clear
11:36 PM 55.4 °F 51.8 °F 88% 30.04 in 10.0 mi NW 5.8 mph - N/A   Scattered Clouds